Tracking 30743 objects as of 20-Jun-2025
HD Live streaming from Space Station
objects crossing your sky now

USA 58

Track USA 58 now!
10-day predictions
USA 58 is classified as:


NORAD ID: 20562
Int'l Code: 1990-031C
Perigee: 604.7 km
Apogee: 695.7 km
Inclination: 89.9 °
Period: 97.6 minutes
Semi major axis: 7021 km
RCS: Unknown
Launch date: April 11, 1990
Source: United States (US)
Launch site: AIR FORCE WESTERN TEST RANGE (AFWTR)
Your satellite tracking list
Your tracking list is empty




NASA's NSSDC Master Catalog

Two Line Element Set (TLE):
1 20562U 90031C   25170.53455985  .00000875  00000-0  12134-3 0  9991
2 20562  89.8530 269.9427 0064752 152.1549 208.3163 14.75657737 60157
Source of the keplerian elements: McCants